DW3701 Weather Reports


Display with metric or nautical units.
time (UTC)temp
F
wind
direction
speed
MPH
gust
MPH
rain 1hr
in
rain 24hr
in
rain mn
in
humidity
%
barometer
mb
20171216145049 28 205 0.0 3.0 0.00 0.00 0.00 62 1014.7
20171216144042 27 205 1.0 4.0 0.00 0.00 0.00 64 1014.6
20171216143058 27 205 2.0 5.0 0.00 0.00 0.00 67 1014.6
20171216142052 26 205 0.0 3.0 0.00 0.00 0.00 72 1014.3
20171216141052 24 205 0.0 0.0 0.00 0.00 0.00 75 1014.2
20171216140052 22 205 0.0 0.0 0.00 0.00 0.00 78 1014.2
20171216135046 21 205 0.0 0.0 0.00 0.00 0.00 80 1014.0
20171216134042 20 205 0.0 0.0 0.00 0.00 0.00 81 1013.9
20171216133105 19 205 0.0 0.0 0.00 0.00 0.00 82 1013.8
20171216132042 17 205 0.0 0.0 0.00 0.00 0.00 83 1013.7
20171216131041 17 205 0.0 0.0 0.00 0.00 0.00 83 1013.7
20171216130047 16 205 0.0 0.0 0.00 0.00 0.00 83 1013.4
20171216125046 15 205 0.0 0.0 0.00 0.00 0.00 82 1013.5
20171216124100 15 205 0.0 0.0 0.00 0.00 0.00 82 1013.5
20171216123044 14 205 0.0 0.0 0.00 0.00 0.00 82 1013.3
20171216122100 14 205 0.0 0.0 0.00 0.00 0.00 82 1013.2
20171216121045 14 205 0.0 0.0 0.00 0.00 0.00 81 1013.0
20171216120047 14 205 0.0 0.0 0.00 0.00 0.00 81 1012.8
20171216115100 14 205 0.0 0.0 0.00 0.00 0.00 81 1012.8
20171216114055 14 205 0.0 0.0 0.00 0.00 0.00 81 1012.6
20171216113052 15 205 0.0 0.0 0.00 0.00 0.00 81 1012.5
20171216112050 15 205 0.0 0.0 0.00 0.00 0.00 81 1012.4
20171216111049 15 205 0.0 0.0 0.00 0.00 0.00 81 1012.3
20171216110052 16 205 0.0 0.0 0.00 0.00 0.00 81 1012.3
20171216105100 16 205 0.0 0.0 0.00 0.00 0.00 81 1012.1
20171216104049 16 205 0.0 0.0 0.00 0.00 0.00 81 1012.1
20171216103048 16 205 0.0 0.0 0.00 0.00 0.00 81 1012.0
20171216102040 16 205 0.0 0.0 0.00 0.00 0.00 81 1012.0
20171216101059 16 205 0.0 0.0 0.00 0.00 0.00 81 1011.9
20171216100054 17 205 0.0 0.0 0.00 0.00 0.00 81 1011.7
20171216095044 17 205 0.0 2.0 0.00 0.00 0.00 81 1011.5
20171216094042 17 205 0.0 0.0 0.00 0.00 0.00 81 1011.4
20171216093052 18 205 0.0 0.0 0.00 0.00 0.00 81 1011.5
20171216092047 18 205 0.0 6.0 0.00 0.00 0.00 81 1011.3
20171216091047 18 205 2.0 6.0 0.00 0.00 0.00 81 1011.2
20171216090047 18 205 1.0 4.0 0.00 0.00 0.00 81 1011.3
20171216085042 18 205 1.0 3.0 0.00 0.00 0.00 80 1011.4
20171216084040 19 205 1.0 4.0 0.00 0.00 0.00 80 1011.2
20171216083056 19 205 0.0 3.0 0.00 0.00 0.00 80 1011.3
20171216082052 19 205 3.0 6.0 0.00 0.00 0.00 80 1011.2
20171216081046 19 205 1.0 6.0 0.00 0.00 0.00 80 1011.1
20171216080105 19 200 3.0 6.0 0.00 0.00 0.00 80 1011.0
20171216075040 19 202 2.0 5.0 0.00 0.00 0.00 80 1011.0
20171216074041 20 203 1.0 4.0 0.00 0.00 0.00 79 1011.1
20171216073053 20 203 0.0 5.0 0.00 0.00 0.00 79 1011.0
20171216072054 20 203 0.0 0.0 0.00 0.00 0.00 79 1011.2
20171216071052 20 203 0.0 0.0 0.00 0.00 0.00 78 1011.1
20171216070055 20 203 0.0 4.0 0.00 0.00 0.00 78 1010.9
20171216065053 20 203 0.0 3.0 0.00 0.00 0.00 77 1010.8
20171216064056 20 203 1.0 4.0 0.00 0.00 0.00 77 1010.8
20171216063047 20 203 1.0 5.0 0.00 0.00 0.00 77 1010.7
20171216062043 20 203 1.0 3.0 0.00 0.00 0.00 77 1010.7
20171216061100 20 203 0.0 4.0 0.00 0.00 0.00 76 1010.6
20171216060101 21 203 1.0 4.0 0.00 0.00 0.00 76 1010.8
20171216055056 21 203 2.0 4.0 0.00 0.00 0.00 75 1010.9
20171216054052 21 203 3.0 6.0 0.00 0.00 0.00 75 1010.8
20171216053053 21 203 2.0 5.0 0.00 0.00 0.00 75 1010.8
20171216052046 21 203 1.0 5.0 0.00 0.00 0.00 75 1010.9
20171216051041 21 202 2.0 6.0 0.00 0.00 0.00 74 1011.0
20171216050101 22 202 2.0 6.0 0.00 0.00 0.00 73 1011.1
20171216045049 22 202 0.0 4.0 0.00 0.00 0.00 73 1011.1
20171216044044 22 202 1.0 4.0 0.00 0.00 0.00 72 1011.2
20171216043045 22 202 1.0 5.0 0.00 0.00 0.00 71 1011.2
20171216042100 22 202 0.0 5.0 0.00 0.00 0.00 70 1011.2
20171216041055 22 202 2.0 5.0 0.00 0.00 0.00 69 1011.4
20171216040103 22 202 0.0 5.0 0.00 0.00 0.00 68 1011.5
20171216035058 22 202 1.0 4.0 0.00 0.00 0.00 67 1011.4
20171216034058 22 202 0.0 6.0 0.00 0.00 0.00 67 1011.4
20171216033056 22 202 1.0 5.0 0.00 0.00 0.00 66 1011.5
20171216032053 22 202 3.0 5.0 0.00 0.00 0.00 66 1011.6
20171216031052 22 202 1.0 5.0 0.00 0.00 0.00 66 1011.6
20171216030053 22 202 0.0 5.0 0.00 0.00 0.00 66 1011.6
20171216025052 22 202 0.0 4.0 0.00 0.00 0.00 67 1011.5
20171216024052 22 202 1.0 4.0 0.00 0.00 0.00 66 1011.5
20171216023056 22 202 0.0 3.0 0.00 0.00 0.00 66 1011.5
20171216022053 22 202 0.0 5.0 0.00 0.00 0.00 66 1011.5
20171216021054 22 202 2.0 5.0 0.00 0.00 0.00 65 1011.6
20171216020055 22 202 1.0 4.0 0.00 0.00 0.00 66 1011.6
20171216015057 22 202 1.0 3.0 0.00 0.00 0.00 66 1011.6
20171216014053 22 202 0.0 6.0 0.00 0.00 0.00 65 1011.7
20171216013050 22 202 1.0 5.0 0.00 0.00 0.00 65 1011.7
20171216012049 22 202 3.0 5.0 0.00 0.00 0.00 65 1011.7
20171216011048 22 202 3.0 7.0 0.00 0.00 0.00 65 1011.8
20171216010045 22 200 1.0 7.0 0.00 0.00 0.00 65 1011.8
20171216005042 22 201 1.0 6.0 0.00 0.00 0.00 65 1011.9
20171216004059 22 198 2.0 5.0 0.00 0.00 0.00 64 1011.9
20171216003056 22 198 2.0 5.0 0.00 0.00 0.00 64 1011.8
20171216002050 22 198 0.0 7.0 0.00 0.00 0.00 64 1011.8
20171216001049 22 196 1.0 5.0 0.00 0.00 0.00 64 1011.7
20171216000045 22 195 0.0 4.0 0.00 0.00 0.00 63 1011.6
20171215235057 22 195 0.0 4.0 0.00 0.00 0.00 63 1011.4
20171215234056 22 196 0.0 4.0 0.00 0.00 0.00 62 1011.5
20171215233054 22 197 0.0 4.0 0.00 0.00 0.00 62 1011.6
20171215232052 22 197 1.0 5.0 0.00 0.00 0.00 62 1011.8
20171215231052 22 196 1.0 3.0 0.00 0.00 0.00 62 1012.1
20171215230054 22 196 0.0 3.0 0.00 0.00 0.00 62 1012.1
20171215225051 22 197 0.0 4.0 0.00 0.00 0.00 62 1012.1
20171215224051 22 197 0.0 4.0 0.00 0.00 0.00 62 1012.1
20171215223050 22 196 0.0 6.0 0.00 0.00 0.00 61 1012.2
20171215222047 22 194 1.0 4.0 0.00 0.00 0.00 61 1012.4
20171215221047 22 194 0.0 3.0 0.00 0.00 0.00 61 1012.5
20171215220058 23 194 0.0 4.0 0.00 0.00 0.00 60 1012.5
20171215215051 23 194 0.0 4.0 0.00 0.00 0.00 61 1012.7
20171215214053 23 194 1.0 5.0 0.00 0.00 0.00 60 1012.9
20171215213054 23 194 2.0 6.0 0.00 0.00 0.00 59 1013.0
20171215212047 23 196 1.0 3.0 0.00 0.00 0.00 59 1013.1
20171215211046 23 195 1.0 6.0 0.00 0.00 0.00 59 1013.3
20171215210044 23 196 1.0 5.0 0.00 0.00 0.00 59 1013.3
20171215205101 23 198 0.0 4.0 0.00 0.00 0.00 59 1013.4
20171215204041 23 198 0.0 6.0 0.00 0.00 0.00 59 1013.7
20171215203100 23 200 1.0 5.0 0.00 0.00 0.00 59 1013.9
20171215202048 23 198 2.0 6.0 0.00 0.00 0.00 59 1013.9
20171215201048 23 196 3.0 6.0 0.00 0.00 0.00 58 1014.0
20171215200049 23 186 2.0 6.0 0.00 0.00 0.00 59 1014.2
20171215195043 23 182 0.0 5.0 0.00 0.00 0.00 59 1014.3
20171215194042 23 184 3.0 7.0 0.00 0.00 0.00 58 1014.3
20171215193059 23 194 2.0 7.0 0.00 0.00 0.00 58 1014.4
20171215192045 23 198 3.0 8.0 0.00 0.00 0.00 58 1014.5
20171215191042 23 183 2.0 8.0 0.00 0.00 0.00 58 1014.7
20171215190059 23 185 2.0 7.0 0.00 0.00 0.00 58 1015.0
20171215185054 24 180 2.0 6.0 0.00 0.00 0.00 58 1015.3
20171215184052 24 173 2.0 8.0 0.00 0.00 0.00 58 1015.4
20171215183049 24 178 0.0 5.0 0.00 0.00 0.00 58 1015.3
20171215182041 24 178 0.0 4.0 0.00 0.00 0.00 59 1015.5
20171215181042 24 178 2.0 7.0 0.00 0.00 0.00 59 1015.6
20171215180057 24 198 0.0 3.0 0.00 0.00 0.00 59 1015.7
20171215175051 23 198 0.0 6.0 0.00 0.00 0.00 60 1015.8
20171215174051 23 201 1.0 6.0 0.00 0.00 0.00 60 1016.0
20171215173051 23 207 0.0 6.0 0.00 0.00 0.00 60 1016.2
20171215172103 23 207 0.0 3.0 0.00 0.00 0.00 60 1016.3
20171215171040 23 207 1.0 5.0 0.00 0.00 0.00 60 1016.5
20171215170045 22 207 1.0 5.0 0.00 0.00 0.00 61 1016.9
20171215165043 22 207 3.0 6.0 0.00 0.00 0.00 61 1017.1
20171215164042 22 219 1.0 4.0 0.00 0.00 0.00 61 1017.2
20171215163044 22 221 1.0 7.0 0.00 0.00 0.00 62 1017.5
20171215162042 21 246 4.0 8.0 0.00 0.00 0.00 62 1018.0
20171215161044 21 252 0.0 5.0 0.00 0.00 0.00 63 1018.3
20171215160103 21 256 1.0 4.0 0.00 0.00 0.00 64 1018.5
20171215155056 20 257 0.0 6.0 0.00 0.00 0.00 66 1018.7
20171215154055 19 257 0.0 4.0 0.00 0.00 0.00 67 1018.9
20171215153057 19 256 0.0 7.0 0.00 0.00 0.00 67 1018.9
20171215152051 19 257 1.0 6.0 0.00 0.00 0.00 69 1019.1
20171215151056 18 274 0.0 3.0 0.00 0.00 0.00 70 1019.2
20171215150055 18 273 0.0 3.0 0.00 0.00 0.00 71 1019.3